TimePST,TemperatureF,Dew PointF,Humidity,Sea Level PressureIn,VisibilityMPH,Wind Direction,Wind SpeedMPH,Gust SpeedMPH,PrecipitationIn,Events,Conditions,WindDirDegrees,DateUTC
12:51 AM,55.9,48.0,75,30.02,10.0,West,3.5,-,N/A,,Clear,280,2013-11-27 08:51:00
1:51 AM,55.0,45.0,69,30.01,10.0,ENE,5.8,-,N/A,,Clear,60,2013-11-27 09:51:00
2:51 AM,54.0,41.0,62,29.99,10.0,ENE,6.9,-,N/A,,Clear,60,2013-11-27 10:51:00
3:51 AM,57.0,39.0,51,29.98,10.0,East,6.9,-,N/A,,Clear,80,2013-11-27 11:51:00
4:51 AM,54.0,39.0,57,29.98,10.0,East,3.5,-,N/A,,Clear,80,2013-11-27 12:51:00
5:51 AM,53.1,39.0,59,29.98,10.0,ENE,3.5,-,N/A,,Clear,70,2013-11-27 13:51:00
6:51 AM,55.0,37.9,53,29.98,10.0,NE,8.1,-,N/A,,Clear,50,2013-11-27 14:51:00
7:51 AM,57.9,39.0,49,29.97,10.0,ENE,6.9,-,N/A,,Clear,60,2013-11-27 15:51:00
8:51 AM,64.9,37.0,36,29.98,10.0,ESE,11.5,-,N/A,,Clear,110,2013-11-27 16:51:00
9:51 AM,70.0,37.0,30,29.98,10.0,East,12.7,-,N/A,,Clear,100,2013-11-27 17:51:00
10:51 AM,72.0,36.0,27,29.95,10.0,ESE,12.7,-,N/A,,Clear,120,2013-11-27 18:51:00
11:51 AM,70.0,37.9,31,29.93,10.0,South,12.7,18.4,N/A,,Clear,170,2013-11-27 19:51:00
12:51 PM,70.0,37.9,31,29.90,10.0,South,11.5,18.4,N/A,,Clear,180,2013-11-27 20:51:00
1:51 PM,69.1,39.9,35,29.88,10.0,South,12.7,19.6,N/A,,Clear,170,2013-11-27 21:51:00
2:51 PM,66.9,46.9,49,29.87,10.0,South,8.1,17.3,N/A,,Clear,180,2013-11-27 22:51:00
3:51 PM,62.1,55.9,80,29.87,9.0,SW,8.1,-,N/A,,Clear,220,2013-11-27 23:51:00
4:06 PM,60.8,57.2,88,29.88,5.0,NNW,6.9,-,N/A,,Scattered Clouds,330,2013-11-28 00:06:00
4:15 PM,59.0,57.2,94,29.88,4.0,NNW,5.8,-,N/A,,Mostly Cloudy,340,2013-11-28 00:15:00
4:33 PM,59.0,55.4,88,29.88,4.0,Variable,4.6,-,N/A,,Scattered Clouds,0,2013-11-28 00:33:00
4:36 PM,59.0,55.4,88,29.87,1.8,NW,6.9,-,N/A,,Scattered Clouds,320,2013-11-28 00:36:00
4:44 PM,57.2,55.4,94,29.88,1.5,WNW,3.5,-,N/A,,Mostly Cloudy,300,2013-11-28 00:44:00
4:48 PM,57.2,55.4,94,29.88,3.0,Calm,Calm,-,N/A,,Mostly Cloudy,0,2013-11-28 00:48:00
4:51 PM,57.0,55.9,96,29.88,3.0,Calm,Calm,-,N/A,,Scattered Clouds,0,2013-11-28 00:51:00
5:03 PM,57.2,55.4,94,29.88,2.0,NNW,3.5,-,N/A,,Mostly Cloudy,330,2013-11-28 01:03:00
5:09 PM,57.2,55.4,94,29.88,1.0,NNW,4.6,-,N/A,,Mist,330,2013-11-28 01:09:00
5:32 PM,57.2,55.4,94,29.89,0.5,WNW,3.5,-,N/A,Fog,Fog,300,2013-11-28 01:32:00
5:51 PM,55.9,55.9,100,29.89,1.0,Calm,Calm,-,N/A,,Mist,0,2013-11-28 01:51:00
6:00 PM,55.4,55.4,100,29.90,3.0,West,3.5,-,N/A,,Mostly Cloudy,260,2013-11-28 02:00:00
6:05 PM,55.4,55.4,100,29.89,4.0,SW,3.5,-,N/A,,Scattered Clouds,220,2013-11-28 02:05:00
6:44 PM,55.4,53.6,94,29.90,4.0,Calm,Calm,-,N/A,,Mostly Cloudy,0,2013-11-28 02:44:00
6:51 PM,57.0,55.0,93,29.90,4.0,Calm,Calm,-,N/A,,Mostly Cloudy,0,2013-11-28 02:51:00
7:07 PM,57.2,57.2,100,29.90,1.8,SSW,3.5,-,N/A,,Overcast,210,2013-11-28 03:07:00
7:17 PM,57.2,57.2,100,29.91,1.5,SW,4.6,-,N/A,,Overcast,230,2013-11-28 03:17:00
7:31 PM,57.2,55.4,94,29.91,0.8,Calm,Calm,-,N/A,,Overcast,0,2013-11-28 03:31:00
7:38 PM,57.2,57.2,100,29.91,1.2,Calm,Calm,-,N/A,,Overcast,0,2013-11-28 03:38:00
7:51 PM,57.0,55.9,96,29.91,2.0,Calm,Calm,-,N/A,,Overcast,0,2013-11-28 03:51:00
8:04 PM,57.2,55.4,94,29.91,3.0,Calm,Calm,-,N/A,,Overcast,0,2013-11-28 04:04:00
8:47 PM,57.2,55.4,94,29.89,2.5,East,5.8,-,N/A,,Overcast,90,2013-11-28 04:47:00
8:51 PM,57.0,55.0,93,29.89,2.0,ENE,6.9,-,N/A,,Overcast,70,2013-11-28 04:51:00
8:57 PM,55.4,55.4,100,29.90,0.8,East,5.8,-,N/A,,Overcast,80,2013-11-28 04:57:00
9:06 PM,55.4,55.4,100,29.90,1.0,East,5.8,-,N/A,,Overcast,90,2013-11-28 05:06:00
9:14 PM,55.4,53.6,94,29.89,0.2,East,8.1,-,N/A,Fog,Fog,100,2013-11-28 05:14:00
9:51 PM,53.1,53.1,100,29.90,0.2,East,3.5,-,N/A,Fog,Fog,100,2013-11-28 05:51:00
10:45 PM,53.6,53.6,100,29.89,2.0,SE,3.5,-,N/A,,Mostly Cloudy,140,2013-11-28 06:45:00
10:51 PM,53.1,53.1,100,29.90,2.5,ESE,3.5,-,N/A,,Scattered Clouds,120,2013-11-28 06:51:00
10:58 PM,53.6,53.6,100,29.90,3.0,ESE,3.5,-,N/A,,Partly Cloudy,120,2013-11-28 06:58:00
11:47 PM,51.8,51.8,100,29.91,1.8,South,3.5,-,N/A,,Partly Cloudy,190,2013-11-28 07:47:00
11:48 PM,52.0,52.0,100,29.91,1.8,South,3.5,-,N/A,,Partly Cloudy,190,2013-11-28 07:48:00